TimeEDT,TemperatureF,Dew PointF,Humidity,Sea Level PressureIn,VisibilityMPH,Wind Direction,Wind SpeedMPH,Gust SpeedMPH,PrecipitationIn,Events,Conditions,WindDirDegrees,DateUTC
12:02 AM,60.8,57.2,88,29.77,10.0,SSW,6.9,-,N/A,,Overcast,200,2013-10-20 04:02:00
12:40 AM,60.8,57.2,88,29.76,10.0,SSW,8.1,-,N/A,,Overcast,210,2013-10-20 04:40:00
12:53 AM,61.0,57.9,90,29.76,10.0,SW,8.1,-,N/A,,Overcast,230,2013-10-20 04:53:00
1:00 AM,60.8,57.2,88,29.76,10.0,SSW,6.9,-,N/A,,Overcast,210,2013-10-20 05:00:00
1:20 AM,60.8,57.2,88,29.75,5.0,SW,11.5,19.6,0.02,Rain,Light Rain,230,2013-10-20 05:20:00
1:32 AM,60.8,57.2,88,29.75,10.0,SW,9.2,18.4,0.03,Rain,Light Rain,230,2013-10-20 05:32:00
1:53 AM,60.1,57.0,90,29.75,10.0,WSW,12.7,-,0.03,,Mostly Cloudy,240,2013-10-20 05:53:00
2:53 AM,57.0,53.1,87,29.76,10.0,West,10.4,-,N/A,,Partly Cloudy,270,2013-10-20 06:53:00
3:53 AM,54.0,51.1,90,29.77,10.0,West,8.1,-,N/A,,Clear,280,2013-10-20 07:53:00
4:53 AM,51.1,46.9,86,29.79,10.0,West,5.8,-,N/A,,Clear,270,2013-10-20 08:53:00
5:53 AM,48.9,45.0,86,29.81,10.0,West,6.9,-,N/A,,Clear,270,2013-10-20 09:53:00
6:53 AM,48.0,43.0,83,29.83,10.0,West,6.9,-,N/A,,Clear,270,2013-10-20 10:53:00
7:53 AM,44.1,42.1,93,29.88,10.0,Calm,Calm,-,N/A,,Clear,0,2013-10-20 11:53:00
8:53 AM,55.0,41.0,59,29.91,10.0,NW,11.5,18.4,N/A,,Clear,310,2013-10-20 12:53:00
9:53 AM,55.9,39.0,53,29.92,10.0,WNW,15.0,21.9,N/A,,Clear,300,2013-10-20 13:53:00
10:53 AM,57.9,36.0,44,29.94,10.0,NW,12.7,23.0,N/A,,Clear,320,2013-10-20 14:53:00
11:53 AM,59.0,37.0,44,29.94,10.0,WNW,17.3,-,N/A,,Clear,290,2013-10-20 15:53:00
12:53 PM,61.0,36.0,39,29.93,10.0,WNW,15.0,19.6,N/A,,Clear,300,2013-10-20 16:53:00
1:53 PM,61.0,34.0,36,29.93,10.0,NW,16.1,-,N/A,,Clear,310,2013-10-20 17:53:00
2:53 PM,63.0,35.1,35,29.94,10.0,NW,15.0,21.9,N/A,,Clear,310,2013-10-20 18:53:00
3:53 PM,62.1,35.1,37,29.95,10.0,WNW,12.7,21.9,N/A,,Clear,290,2013-10-20 19:53:00
4:53 PM,61.0,35.1,38,29.96,10.0,West,11.5,-,N/A,,Clear,270,2013-10-20 20:53:00
5:53 PM,57.0,35.1,44,29.98,10.0,West,5.8,-,N/A,,Clear,270,2013-10-20 21:53:00
6:53 PM,46.9,34.0,61,30.00,10.0,Calm,Calm,-,N/A,,Clear,0,2013-10-20 22:53:00
7:53 PM,42.1,32.0,67,30.02,10.0,Calm,Calm,-,N/A,,Clear,0,2013-10-20 23:53:00
8:53 PM,37.0,28.9,73,30.04,10.0,Calm,Calm,-,N/A,,Clear,0,2013-10-21 00:53:00
9:53 PM,36.0,28.9,76,30.06,10.0,Calm,Calm,-,N/A,,Clear,0,2013-10-21 01:53:00
10:53 PM,34.0,28.0,79,30.07,10.0,Calm,Calm,-,N/A,,Clear,0,2013-10-21 02:53:00
11:53 PM,32.0,28.0,85,30.08,10.0,Calm,Calm,-,N/A,,Clear,0,2013-10-21 03:53:00